Regional Weather Roundup
Issued by NWS

Home | Current Version | Previous Version | Text Only | Print | Product List | Glossary Off
Versions: 1 2 3 4 5 6 7 8 9 10 11 12 13 14 15 16 17 18 19 20 21 22 23 24 25 26 27 28 29 30 31 32 33 34 35 36 37 38 39 40 41 42 43 44 45 46 47 48 49 50

000
ASUS43 KLSX 141657
RWRMO

WEATHER SUMMARY FOR MISSOURI
NATIONAL WEATHER SERVICE SPRINGFIELD MO
1100 AM CST THU DEC 14 2017

NOTE: "FAIR" INDICATES FEW OR NO CLOUDS BELOW 12,000 FEET WITH NO
       SIGNIFICANT WEATHER AND/OR OBSTRUCTIONS TO VISIBILITY.
       CURRENT SKY AND/OR WEATHER CONDITIONS ARE NOT AVAILABLE FOR
       CHILLICOTHE AND FARMINGTON.

MOZ001>031-035>038-043-044-053-054-141800-
...NORTHERN AND WESTERN MISSOURI...

CITY           SKY/WX    TMP DP  RH WIND       PRES   REMARKS
KANSAS CTY INT CLOUDY    37  26  64 NW6       30.10S
LEE`S SUMMIT   CLOUDY    38  24  57 N9        30.11R
ST JOSEPH      CLOUDY    38  27  64 NW10      30.12R
CHILLICOTHE      N/A     33  21  61 N7        30.13R WCI  27

$$
MOZ066>068-077>081-088>096-101>105-141800-
...SOUTHWEST MISSOURI...

CITY           SKY/WX    TMP DP  RH WIND       PRES   REMARKS
SPRINGFIELD    CLOUDY    38  22  52 N9        30.08R
JOPLIN         CLOUDY    39  29  67 N6        30.13R
BRANSON        CLOUDY    37  25  60 N12       30.09S WCI  30

$$
MOZ032>034-039>042-045>050-055>058-069>072-141800-
...CENTRAL MISSOURI...

CITY           SKY/WX    TMP DP  RH WIND       PRES   REMARKS
COLUMBIA       NOT AVBL
JEFFERSON CITY CLOUDY    35  22  58 W8        30.10F WCI  29
ROLLA          CLOUDY    33  23  66 NW7       30.08R WCI  27
SEDALIA        CLOUDY    36  24  62 N10       30.12S WCI  28
WARRENSBURG    CLOUDY    34  23  64 CALM      30.12R

$$
MOZ051-052-059>065-141800-
...EAST CENTRAL MISSOURI...

CITY           SKY/WX    TMP DP  RH WIND       PRES   REMARKS
ST LOUIS INTL  CLOUDY    31  19  61 N8        30.10S WCI  23

$$
MOZ072>076-082>087-097>100-106>115-141800-
...SOUTH CENTRAL AND SOUTHEAST MISSOURI...

CITY           SKY/WX    TMP DP  RH WIND       PRES   REMARKS
CAPE GIRARDEAU CLOUDY    36  23  59 N8        30.09S WCI  30
POPLAR BLUFF   CLOUDY    43  23  45 VRB5G17   30.08S
WEST PLAINS    MOSUNNY   40  21  46 NW14G21   30.07S

$$



USA.gov is the U.S. government's official web portal to all federal, state and local government web resources and services.